Skip Page Navigation
NASA JPL Caltech
NASA Logo - Jet Propulsion Laboratory + View the NASA Portal
+ Center for Near-Earth Object Studies
JPL Home Earth Solar System Stars & Galaxies Technology
JPL Solar System Dynamics
BODIES ORBITS EPHEMERIDES TOOLS PHYSICAL DATA DISCOVERY FAQ SITE MAP
IMPORTANT: The SSD Announcement email list is now available. Major changes are coming in the near future, including possible hostname and/or URL changes. To be notified of such changes, subscribe to this email list.

Please visit this page for more details.


JPL Small-Body Database Browser
Search: [ help ]  
(2014 WY119)
Classification: Apollo [NEO]          SPK-ID: 3697564
Ephemeris | Orbit Diagram | Orbital Elements | Mission Design | Physical Parameters | Close-Approach Data ]

[ hide orbit diagram ]

For accurate long-term ephemerides, please instead use our Horizons system.This orbit viewer was implemented using two-body methods, and hence should not be used for determining accurate long-term trajectories (over several years or decades) or planetary encounter circumstances.


[ revert to old Java-based viewer ]

Orbital Elements at Epoch 2458600.5 (2019-Apr-27.0) TDB
Reference: JPL 5 (heliocentric ecliptic J2000)
 Element Value Uncertainty (1-sigma)   Units 
e .1254483996691291 9.1091e-05  
a 1.121993150595018 0.00011835 au
q .9812409054131488 1.5365e-06 au
i 8.10575538947049 0.0060623 deg
node 241.8987401094088 0.00017339 deg
peri 211.0594734577007 0.0050311 deg
M 234.3900213443515 0.20321 deg
tp 2458751.962589131266
(2019-Sep-25.46258913)
0.269 TDB
period 434.0939523342864
1.19
0.068681
0.000188
d
yr
n .8293135577313268 0.00013121 deg/d
Q 1.262745395776887 0.00013319 au
  Orbit Determination Parameters
   # obs. used (total)      33  
   data-arc span      4 days  
   first obs. used      2014-11-21  
   last obs. used      2014-11-25  
   planetary ephem.      DE431  
   SB-pert. ephem.      SB431-N16  
   condition code      6  
   norm. resid. RMS      .58601  
   source      ORB  
   producer      Otto Matic  
   solution date      2017-Apr-06 08:37:21  

Additional Information
 Earth MOID = .0095227 au 
 Jupiter MOID = 3.84522 au 
 T_jup = 5.550 
[ show covariance matrix ]

Ephemeris | Orbit Diagram | Orbital Elements | Mission Design | Physical Parameters | Close-Approach Data ]

Physical Parameter Table
Parameter Symbol Value Units Sigma Reference Notes
absolute magnitude H 26.3   n/a MPO318850  

[ show close-approach data ]
Ephemeris | Orbit Diagram | Orbital Elements | Mission Design | Physical Parameters | Close-Approach Data ]
ABOUT SSD CREDITS/AWARDS PRIVACY/COPYRIGHT GLOSSARY LINKS
FirstGov
(server date/time)  
NASA Home Page
Site Manager:   Ryan S. Park
Webmaster  Alan B. Chamberlin